Weather History for New York JFK, NY

Change the Weather History Date:

Friday, August 8, 2014

  Actual Average Record
Temperature  
Mean Temperature 75 °F 76 °F  
Max Temperature 84 °F 83 °F 99 °F (2001)
Min Temperature 65 °F 69 °F 58 °F (1989)
Degree Days  
Heating Degree Days 0 0  
Month to date heating degree days 0 0  
Since 1 June heating degree days 0 21  
Since 1 July heating degree days 0 0  
Cooling Degree Days 10 11  
Month to date cooling degree days 84 88  
Year to date cooling degree days 657 643  
Since 1 June cooling degree days 625 608  
Growing Degree Days 24 (Base 50)    
Moisture  
Dew Point 53 °F    
Average Humidity 50    
Maximum Humidity 73    
Minimum Humidity 26    
Precipitation  
Precipitation 0.00 in 0.13 in 3.77 in (1976)
Month to date precipitation 0.49 1.05  
Year to date precipitation 30.37 26.33  
Snow  
Snow 0.00 in 0.00 in - ()
Month to date snowfall 0.0 0.0  
Since 1 July snowfall 0.0 0.0  
Snow Depth 0.00 in    
Sea Level Pressure  
Sea Level Pressure 30.06 in    
Wind  
Wind Speed 6 mph (NW)    
Max Wind Speed 16 mph    
Max Gust Speed 21 mph    
Visibility 10 miles    
Events      
T = Trace of Precipitation, MM = Missing Value Source: NWS Daily Summary

Daily Weather History Graph

Daily Weather History Graph

Search for Another Location

Airport:

Trip Planner

Search our weather history database for the weather conditions in past years. The results will help you decide how hot, cold, wet, or windy it might be!

Date:

Astronomy

Aug. 08, 2014 Rise Set
Actual Time 5:58 AM EDT 8:02 PM EDT
Civil Twilight 5:28 AM EDT 8:31 PM EDT
Nautical Twilight 4:51 AM EDT 9:08 PM EDT
Astronomical Twilight 4:11 AM EDT 9:48 PM EDT
Moon 6:11 PM EDT (8/8) 3:28 AM EDT (8/8)
Length of Visible Light 15h 03m
Length of Day
14h 03m
Waxing Gibbous, 93% of the Moon is Illuminated
Aug 8
Waxing Gibbous
Aug 10
Full
Aug 17
Last Quarter
Aug 25
New
Sep 2
First Quarter

Hourly Weather History & Observations

Time (EDT) Temp. Dew Point Humidity Pressure Visibility Wind Dir Wind Speed Gust Speed Precip Events Conditions
12:51 AM 69.1 °F 50.0 °F 51% 30.02 in 10.0 mi NNW 6.9 mph - N/A   Clear
1:51 AM 64.9 °F 51.1 °F 61% 30.03 in 10.0 mi Calm Calm - N/A   Clear
2:51 AM 66.9 °F 51.1 °F 57% 30.03 in 10.0 mi NW 4.6 mph - N/A   Clear
3:51 AM 68.0 °F 50.0 °F 52% 30.03 in 10.0 mi NNW 4.6 mph - N/A   Clear
4:51 AM 66.0 °F 52.0 °F 60% 30.04 in 10.0 mi NNW 8.1 mph - N/A   Clear
5:51 AM 64.9 °F 52.0 °F 63% 30.06 in 10.0 mi West 8.1 mph - N/A   Mostly Cloudy
6:51 AM 66.9 °F 53.1 °F 61% 30.07 in 10.0 mi NW 9.2 mph - N/A   Mostly Cloudy
7:51 AM 70.0 °F 54.0 °F 57% 30.08 in 10.0 mi NNW 8.1 mph - N/A   Scattered Clouds
8:51 AM 73.4 °F 53.6 °F 50% 30.10 in 10.0 mi NW 6.9 mph - N/A   Mostly Cloudy
9:51 AM 75.2 °F 53.6 °F 47% 30.10 in 10.0 mi North 9.2 mph - N/A   Scattered Clouds
10:51 AM 78.8 °F 51.8 °F 39% 30.09 in 10.0 mi NNW 10.4 mph 16.1 mph N/A   Scattered Clouds
11:51 AM 80.6 °F 48.2 °F 32% 30.08 in 10.0 mi WNW 11.5 mph - N/A   Scattered Clouds
12:51 PM 80.6 °F 46.4 °F 30% 30.06 in 10.0 mi Variable 3.5 mph - N/A   Mostly Cloudy
1:51 PM 82.4 °F 44.6 °F 26% 30.06 in 10.0 mi NW 9.2 mph 19.6 mph N/A   Mostly Cloudy
2:51 PM 82.4 °F 46.4 °F 28% 30.05 in 10.0 mi NNW 4.6 mph - N/A   Mostly Cloudy
3:51 PM 82.4 °F 46.4 °F 28% 30.04 in 10.0 mi North 9.2 mph - N/A   Mostly Cloudy
4:51 PM 82.4 °F 44.6 °F 26% 30.04 in 10.0 mi Calm Calm - N/A   Mostly Cloudy
5:51 PM 82.4 °F 48.2 °F 30% 30.04 in 10.0 mi Variable 5.8 mph - N/A   Mostly Cloudy
6:51 PM 75.2 °F 60.8 °F 61% 30.05 in 10.0 mi SSW 11.5 mph - N/A   Mostly Cloudy
7:51 PM 75.2 °F 62.6 °F 65% 30.06 in 10.0 mi South 13.8 mph - N/A   Mostly Cloudy
8:51 PM 73.4 °F 64.4 °F 73% 30.06 in 10.0 mi South 6.9 mph - N/A   Mostly Cloudy
9:51 PM 73.4 °F 64.4 °F 73% 30.07 in 10.0 mi Calm Calm - N/A   Mostly Cloudy
10:51 PM 75.2 °F 57.2 °F 53% 30.07 in 10.0 mi NNE 3.5 mph - N/A   Mostly Cloudy
11:51 PM 73.4 °F 60.8 °F 65% 30.07 in 10.0 mi Calm Calm - N/A   Mostly Cloudy